Regional Weather Roundup
Issued by NWS Northern Indiana

Home | Current Version | Previous Version | Text Only | Print | Product List | Glossary Off
Versions: 1 2 3 4 5 6 7 8 9 10 11 12 13 14 15 16 17 18 19 20 21 22 23 24 25 26 27 28 29 30 31 32 33 34 35 36 37 38 39 40 41 42 43 44 45 46 47 48 49 50

000
ASUS43 KIWX 160810
RWRIWX

KIWX WEATHER ROUNDUP
NATIONAL WEATHER SERVICE NORTHERN INDIANA
300 AM EST MON JAN 16 2017

NOTE: "FAIR" INDICATES FEW OR NO CLOUDS BELOW 12,000 FEET WITH NO
SIGNIFICANT WEATHER AND/OR OBSTRUCTIONS TO VISIBILITY.

* THESE STATIONS ARE NOT UNDER NWS QUALITY CONTROL. THEY ALSO MAY NOT
  REPORT WEATHER SUCH AS PRECIPITATION OR FOG.

INZ001>027-160900-
NORTHERN INDIANA

CITY           SKY/WX    TMP DP  RH WIND       PRES   REMARKS
GARY*          CLOUDY    34  26  74 CALM      30.30S
VALPARAISO     CLOUDY    32  28  85 E6        30.29S WCI  26
LAPORTE*       MOCLDY    31  27  85 E3        30.30S
KNOX*          CLOUDY    32  14  47 E3        30.29S
SOUTH BEND     PTCLDY    29  24  82 E5        30.30S WCI  24
GOSHEN         CLOUDY    30  24  78 SE6       30.30F WCI  24
ROCHESTER*     CLOUDY    34  30  86 SE3       30.30S
WARSAW*        CLOUDY    30  27  86 CALM      30.29F
FORT WAYNE     CLOUDY    31  27  85 SE6       30.30F WCI  25
PERU/GRISSOM   CLOUDY    32  32 100 E7        30.28R WCI  26
MARION*        CLOUDY    32  30  93 E5        30.31R FOG     WCI  27

$$
INZ028>050-160900-
CENTRAL INDIANA

CITY           SKY/WX    TMP DP  RH WIND       PRES   REMARKS
LAFAYETTE      CLOUDY    33  31  92 E5        30.28F WCI  29
KOKOMO*        CLOUDY    32  30  92 E7        30.30R FOG     WCI  26
MUNCIE*        CLOUDY    34  31  88 E5        30.29R FOG     WCI  30
INDIANAPOLIS   CLOUDY    36  33  89 E7        30.27R FOG

$$
MIZ043>046-050>051-056>058-064>065-071>073-077>080-160900-
SOUTHWEST LOWER MICHIGAN

CITY           SKY/WX    TMP DP  RH WIND       PRES   REMARKS
BATTLE CREEK   CLOUDY    22  20  92 CALM      30.32R
BENTON HARBOR  PTCLDY    27  23  85 CALM      30.30F FOG
COLDWATER*     PTCLDY    24  21  90 SE3       30.31S
HILLSDALE*     CLOUDY    19  18  93 CALM      30.30S FOG
HOLLAND        PTCLDY    23  20  88 S5        30.32R WCI  17
GRAND RAPIDS   CLOUDY    21  18  88 S8        30.32R FOG     WCI  11
KALAMAZOO      PTCLDY    23  18  81 CALM      30.31R HAZE
STURGIS*       PTCLDY    26  22  85 E5        30.30S WCI  20
THREE RIVERS*  FAIR      26  24  93 CALM      30.31F

$$
OHZ001>008-015>018-024>025-160900-
NORTHWEST OHIO

CITY           SKY/WX    TMP DP  RH WIND       PRES   REMARKS
DEFIANCE       CLOUDY    28  24  85 CALM      30.33F FOG
FINDLAY        MOCLDY    30  24  78 SE3       30.32S
TOLEDO EXPRESS CLOUDY    21  20  96 CALM      30.35R FOG
TOLEDO METCALF CLOUDY    23  21  92 CALM      30.36R FOG
LIMA           CLOUDY    31  29  92 SE7       30.31F FOG     WCI  24

$$
AND FOR LAKE MICHIGAN COASTAL AND OPEN LAKE BUOY OBSERVATIONS

STATION/POSITION TEMP    WIND        PRES    VSBY  WAVE
                 AIR SEA DIR/SP/G                  HT/PER
                 (F)     (DEG/KT/KT) (MB)    (MI)  (FT/S)
CALUMET HARBOR    33      90/  2/  2 1025.0F
MICHIGAN CITY     32     120/  3/  4   N/A
BURNS HARBOR      33     170/  5/  7 1026.1S
SAINT JOSEPH      29      CALM  /  2 1026.4

$$
&&




USA.gov is the U.S. government's official web portal to all federal, state and local government web resources and services.